{"data":{"norad_id":48581,"epoch":"2026-05-25T03:37:15.503232Z","epoch_age_seconds":72206,"freshness":"FRESH","line1":"1 48581U 21041AE  26145.15087388 -.00000656  00000+0 -93801-5 0  9996","line2":"2 48581  53.1595 108.2273 0001216  66.0509 294.0620 15.31698369277308","mean_motion":15.31698369,"eccentricity":0.0001216,"inclination_deg":53.1595,"raan_deg":108.2273,"arg_perigee_deg":66.0509,"mean_anomaly_deg":294.062,"bstar":-9.3801e-6,"rev_number":27730,"period_min":94.013288069252,"perigee_km":469.91203312226,"apogee_km":471.57768118992,"semimajor_km":6848.8818571561,"source":"CELESTRAK","updated_at":"2026-05-25T13:38:16.749476Z"}}